パンスターズ彗星

P/2019 A3 ( PanSTARRS )

English version
Home page
Updated on March 31, 2021

---------------------------------------------------------------------

・ プロフィール

発見日 2019年1月3日
発見光度 21.9等
発見者 Pan-STARRS 1 telescope (Haleakala)

・ 軌道要素

Epoch 2018 July 21.0 TT = JDT 2458320.5                                         
T 2018 Aug. 1.80771 TT                                  Rudenko                 
q   2.3134561            (2000.0)            P               Q                  
n   0.17655868     Peri.  325.47536     +0.98791164     +0.07098877             
a   3.1468545      Node    31.33330     +0.02454811     +0.80612557             
e   0.2648354      Incl.   15.36745     -0.15306201     +0.58747099             
P   5.58                                                                        
From 41 observations 2018 Aug. 8-2021 Mar. 14, mean residual 0".3.              

・ 光度変化

        H = 18.5  G = 0.15

---------------------------------------------------------------------

軌道要素はM.P.E.C. 2021-F115に掲載されたものです。
光度グラフはComet for Windowsで作成したものです。

---------------------------------------------------------------------

Copyright(C) Seiichi Yoshida (comet@aerith.net). All rights reserved.